www.pogodaiklimat.ru

Погода и климат >> Архив погоды >> Иран >> Omidieh


ПОГОДА в Omidieh

  • Прогноз погоды в Omidieh
  • Монитор погоды в Omidieh
  • Климат города

АРХИВ ПОГОДЫ в Omidieh

Время (UTC), дата Ветер
(напр.,м/с)
 
Видим.   Явления Облачность Т
(С)
Тd
(С)
f
(%)
Тe
(С)
Тes
(С)
Комфортность P
(гПа)
Po
(гПа)
Тmin
(С)
Tmax
(С)
R
(мм)
R24
(мм)
S
(см)
03 14.11 ЮВ 1 6000 м дымка 6/6 1200 м
[Sc]
+14.8 +12.1 84 +15 +15 1015.0 1011.8 +14.4
06 14.11 штиль 0 4000 м мгла 9/6 1200 м
[Sc Ac trans]
+19.0 +13.8 72 +20 +21 1015.7 1012.5
09 14.11 ЮВ 3 7000 м мгла 10/8 1050 м
[Cb calv Ac As]
+23.1 +13.2 54 +26 +27 жарко 1014.6 1011.4
12 14.11 Ю 4 10 км 10/5 1200 м
[Sc Ac As]
+22.3 +14.0 59 +25 +26 комфорт 1013.6 1010.4
15 14.11 ЮВ 4 7000 м слабый ливневой дождь 10/8 1050 м
[Cb calv Ac As]
+17.3 +14.1 81 +17 +17 1015.3 1012.1 +23.2
18 14.11 ЮВ 6 8000 м слабый ливневой дождь 10/8 1050 м
[Cb calv Ac As]
+18.1 +13.3 74 +18 +18 1016.0 1012.8 3
21 14.11 ЮВ 8 10 км {ливн. осадки} 10/10 1050 м
[Cb calv]
+19.3 +14.0 71 +20 +20 1015.1 1011.9
00 15.11 В 7 10 км {ливн. осадки} 10/10 1050 м
[Cb calv]
+19.9 +14.2 70 +21 +21 комфорт 1012.6 1009.4 4
03 15.11 ЮВ 10 10 км {ливн. осадки} 10/10 1050 м
[Cb calv]
+19.6 +14.9 74 +21 +21 комфорт 1015.4 1012.2 +17.6
06 15.11 В 7 10 км {ливн. осадки} 10/6 1050 м
[Cb calv Ac As]
+20.2 +15.4 74 +22 +22 комфорт 1017.5 1014.3 2
09 15.11 ЮВ 5 7000 м слабый ливневой дождь 10/8 900 м
[Cb calv Ac As]
+19.0 +16.9 88 +20 +21 1017.2 1014.0
12 15.11 ЮВ 8 10 км в посл. час дождь {ливн. осадки} 10/6 1050 м
[Cb calv As op]
+21.5 +15.0 66 +25 +25 комфорт 1014.4 1011.3 6
15 15.11 СВ 6 7000 м слабый дождь 10/6 1050 м
[Cb calv As op]
+20.6 +15.7 73 +23 +23 комфорт 1015.3 1012.1 +21.9
18 15.11 СВ 3 7000 м гроза, ливневой дождь 8/5 900 м
[Cb cap Ac As]
+21.5 +15.4 68 +25 +25 комфорт 1014.6 1011.5 0.2
21 15.11 В 6 8000 м мгла {гроза, ливн. осадки} 10/6 1050 м
[Cb calv Ac As]
+21.6 +16.1 71 +25 +25 комфорт 1014.5 1011.3
00 16.11 СЗ 9 5000 м сильная гроза, ливневой дождь 10/10 900 м
[Cb cap]
+18.9 +17.4 91 +19 +19 1015.3 1012.2 14
03 16.11 В 8 7000 м мгла {гроза, ливн. осадки} 10/6 1050 м
[Cb calv Ac As]
+21.4 +16.1 72 +25 +25 комфорт 1014.7 1011.6 +19.0
06 16.11 ЮВ 11 8000 м {гроза, ливн. осадки} 9/9 1050 м
[Cb calv]
+22.9 +16.4 67 +28 +28 душно 1016.8 1013.7 6
09 16.11 ЮВ 7 10 км 8/8 1050 м
[Cb calv]
+24.8 +16.2 59 +28 +29 жарко 1016.2 1013.1
12 16.11 ЮВ 6 10 км 5/5 1200 м
[Sc diur, vesp]
+25.9 +17.6 60 +30 +31 душно 1016.2 1013.1
15 16.11 штиль 0 10 км ясно +21.9 +18.6 82 +27 +27 душно 1017.6 1014.5 +26.1
18 16.11 С 2 8000 м дымка ясно +19.2 +17.6 90 +22 +22 комфорт 1019.1 1016.0
21 16.11 штиль 0 10 км ясно +18.5 +16.8 90 +19 +19 1018.8 1015.8
00 17.11 С 4 10 км ясно +17.9 +16.5 92 +18 +18 1018.4 1015.3
03 17.11 С 3 7000 м дымка ясно +16.6 +15.7 94 +16 +16 1019.5 1016.3 +16.6
06 17.11 С 4 10 км ясно +20.5 +17.9 85 +24 +27 комфорт 1021.5 1018.3
09 17.11 С 6 10 км 3/3 1200 м
[Sc diur, vesp]
+24.3 +19.8 76 +30 +32 очень
душно
1019.8 1016.7
12 17.11 СЗ 7 10 км 3/3 1200 м
[Sc diur, vesp]
+25.3 +18.8 67 +30 +31 душно 1018.6 1015.4
15 17.11 СЗ 4 10 км ясно +21.6 +18.7 84 +26 +26 душно 1019.2 1016.0 +25.6
18 17.11 С 3 5000 м дымка ясно +18.7 +17.6 93 +20 +20 1019.6 1016.5
21 17.11 С 3 4000 м дымка ясно +17.2 +16.3 94 +17 +17 1019.8 1016.7
00 18.11 СЗ 2 2000 м дымка ясно +15.7 +15.2 97 +16 +16 1019.3 1016.2
03 18.11 СЗ 3 1000 м дымка ясно +15.9 +15.6 98 +15 +15 1019.3 1016.1 +15.7
06 18.11 С 3 200 м туман ?/? +16.7 +16.5 99 +16 +16 1019.6 1016.4
09 18.11 СЗ 2 500 м туман ?/? +17.8 +17.1 96 +18 +18 1019.2 1016.0
12 18.11 С 4 2000 м дымка {туман} 1/1 1200 м
[Cu med, cong]
+20.2 +17.6 85 +23 +25 комфорт 1017.7 1014.6
15 18.11 С 4 3000 м дымка 5/0
[Ci fib]
+18.6 +17.1 91 +19 +19 1017.2 1014.0 +20.2
18 18.11 С 3 2000 м дымка ясно +16.6 +15.8 95 +16 +16 1018.3 1015.0
21 18.11 штиль 0 <100 м туман ?/? +14.8 +14.5 98 +14 +14 1018.9 1015.6
00 19.11 штиль 0 500 м туман ясно +13.8 +13.5 98 +13 +13 1017.7 1014.5
03 19.11 штиль 0 500 м туман ясно +12.1 +11.9 99 +11 +11 1017.7 1014.5 +12.1
06 19.11 ЮВ 1 600 м туман 3/3 1200 м
[Sc diur, vesp]
+15.6 +14.8 95 +16 +20 1019.3 1016.1
09 19.11 ЮЗ 3 1700 м дымка {туман} 6/0
[Cs]
+19.8 +16.4 81 +22 +29 комфорт 1018.9 1015.7
12 19.11 СЗ 3 2100 м мгла 9/5 1200 м
[Sc Ac As]
+19.8 +15.5 76 +22 +23 комфорт 1018.1 1014.8
15 19.11 С 3 2100 м дымка 8/3 1200 м
[Sc Cs]
+17.4 +15.3 87 +17 +17 1017.9 1014.6 +20.2
18 19.11 З 4 2100 м дымка 9/5 1200 м
[Sc Ac As]
+17.5 +15.1 86 +17 +17 1018.9 1015.6
21 19.11 СЗ 2 1700 м дымка 9/5 1200 м
[Sc Ac As]
+17.0 +15.5 91 +17 +17 1018.1 1014.9
00 20.11 З 2 1500 м слабый ливневой дождь 10/10 1050 м
[Cb calv]
+16.6 +15.7 94 +17 +17 1017.6 1014.5 0.2
03 20.11 СВ 1 1200 м слабый ливневой дождь 10/10 900 м
[Cb calv]
+16.4 +15.6 95 +17 +17 1019.5 1016.2 +16.3
06 20.11 С 7 3000 м дымка {ливн. осадки} 5/5 1200 м
[Sc diur, vesp]
+17.5 +14.8 84 +17 +17 1020.5 1017.3 3
09 20.11 С 5 7000 м мгла 4/4 1050 м
[Cb calv]
+20.5 +15.1 71 +23 +26 комфорт 1020.2 1017.0
12 20.11 С 6 10 км 1/1 1050 м
[Cb calv]
+22.2 +13.6 58 +25 +26 комфорт 1018.2 1015.0
15 20.11 СЗ 3 7000 м мгла 1/1 1200 м
[Sc diur, vesp]
+18.6 +14.6 78 +20 +20 1018.7 1015.5 +22.2
18 20.11 С 2 6000 м дымка ясно +16.2 +14.0 87 +16 +16 1019.3 1016.0
21 20.11 ЮВ 2 6000 м дымка ясно +14.4 +13.3 93 +14 +14 1019.0 1015.8

 

Местоположение метеостанции Omidieh (Иран): широта 30.77 долгота 49.67 высота над уровнем моря 27 м.

В архиве по умолчанию представлена погода в Omidieh за последнюю неделю. Архивные данные за месяц целиком и за предыдущие месяцы, начиная с января 2011 года, Вы можете получить, выбрав интересующий диапазон дат из раскрывающегося списка и нажав кнопку "Ввод!".


*Определитесь, кто Вы:
робот инопланетянин человек

Внимание! Время в таблицах - всемирное. Для получения местного времени необходимо прибавить поправку, которая в Omidieh равна 3.5 ч.

Смотрите также архив погоды в соседних городах и на ближайших метеорологических станциях:

Погода в Gach Saran (Иран) (112 км)
Погода в Ahwaz (Иран) (114 км)
Погода в Masjed-Soleyman (Иран) (140 км)
Погода в Fao (Ирак) (143 км)
Погода в Abadan (Иран) (143 км)
Погода в Bubiyan (Кувейт) (167 км)
Погода в Khark (Иран) (179 км)
Погода в Basrah (Ирак) (182 км)
Погода в Yasuj (Иран) (183 км)
Погода в Basrah Airport (Ирак) (183 км)

Пояснения к столбцам:

Ветер - указаны скорость ветра в м/с - средняя за 10 мин, порывы в срок и между сроками (в фигурных скобках) и направление, откуда дует ветер: С - северный, СВ - северо-восточный, В - восточный, ЮВ - юго-восточный, Ю - южный, ЮЗ - юго-западный, З - западный, СЗ - северо-западный.
Видимость - горизонтальная дальность видимости в метрах или километрах. При видимости от 1 до 10 км при отсутствии осадков обычно наблюдается дымка, при ухудшении видимости до 1 км и менее - туман. В сухую погоду видимость может ухудшаться дымом, пылью или мглою.
Явления - указаны атмосферные явления, наблюдавшиеся в срок или в последний час перед сроком; фигурными скобками обозначены явления, наблюдавшиеся между сроками (за 1-3 часа до срока); квадратными скобками обозначены град или гололедные отложения с указанием их диаметра в мм.
Облачность - указаны через наклонную черту общая и нижняя облачность в баллах и высота нижней границы облаков в метрах; квадратными скобками обозначены формы облаков: Ci - перистые, Cs - перисто-слоистые, Cc - перисто-кучевые, Ac - высококучевые, As - высокослоистые, Sc - слоисто-кучевые, Ns - слоисто-дождевые, Cu - кучевые, Cb - кучево-дождевые. Подробнее классификацию облаков см. в Атласе облаков (PDF).
T - Температура воздуха - температура, измеренная на высоте 2 м над землей.
Td - Температура точки росы - температура, при понижении до которой содержащийся в воздухе водяной пар достигнет насыщения.
f - Относительная влажность воздуха - влажноcть воздуха, измеренная на высоте 2 м над землей.
Te - Эффективная температура - температура, которую ощущает одетый по сезону человек в тени. Характеристика душности погоды. При расчете учитывается влияние влажности воздуха и скорости ветра на теплоощущения человека.
Tes - Эффективная температура на солнце - температура, которую ощущает человек, с поправкой на солнечный нагрев. Характеристика знойности погоды. Зависит от высоты солнца над горизонтом, облачности и скорости ветра. Ночью, в пасмурную погоду, а также при ветре 12 м/с и более поправка равна нулю.
P - Атмосферное давление - приведенное к уровню моря атмосферное давление.
Po - Атмосферное давление - измеренное на уровне метеостанции атмосферное давление.
Tmin - Минимальная температура - минимум температуры воздуха на высоте 2 м над землей.
Tmax - Максимальная температура - максимум температуры воздуха на высоте 2 м над землей.
R - Количество осадков - Количество выпавших осадков за период времени, мм. При наведении курсора мыши на число - период времени, за который выпало указанное количество осадков.
R24 - Количество осадков - Количество выпавших осадков за 24 часа, мм.
S - Снежный покров - Высота снежного покрова, см. При наведении курсора мыши на число - состояние снежного покрова и степень покрытия местности в баллах.